CAPE
0 0 0 0 0 0 0 1 1 0 1 0 0 0 0 0 0 0 0 0 0 0 0 0 0 0 1 111 21 118 79 0 50 71 67 15 52 2 66 327 396 617 677 704 608
0 0 0 0 0 0 0 1 0 1 0 0 0 0 0 0 0 0 0 0 0 5 0 0 0 0 0 8 14 32 0 0 0 8 73 18 147 65 199 390 499 902 710 765 614
0 0 0 0 0 0 1 0 1 0 0 0 0 0 0 0 0 0 1 0 0 0 0 0 0 0 13 1 4 0 0 0 0 0 15 148 131 123 158 230 444 523 849 710 718
0 0 0 0 0 0 0 1 1 1 0 0 0 0 0 0 0 0 0 0 0 0 0 0 0 0 21 4 0 0 0 0 0 0 69 98 86 20 110 214 387 477 521 938 772
0 0 0 0 0 0 0 1 1 0 0 0 0 0 0 0 0 0 0 0 0 0 0 0 0 3 2 4 0 6 0 0 0 0 33 88 55 76 162 205 327 473 425 699 813
0 0 0 0 0 0 1 1 1 0 0 0 0 0 0 0 0 0 0 0 0 0 0 0 0 0 0 0 0 0 0 0 0 0 36 34 75 105 184 231 261 422 461 389 969
0 1 1 0 0 0 0 0 0 0 0 0 0 0 0 0 0 0 0 0 0 0 0 0 0 0 0 0 0 0 0 0 0 0 23 224 180 148 210 277 306 263 290 415 470
1 1 0 0 0 0 0 0 0 0 0 0 0 0 0 0 0 0 0 0 0 0 0 0 0 0 0 0 0 0 0 3 0 0 11 68 179 273 196 319 374 275 202 250 402
1 1 0 0 0 0 0 0 0 0 0 0 0 0 0 0 0 0 0 0 0 0 0 0 0 0 0 0 0 0 0 0 0 0 18 26 237 364 239 347 454 366 271 227 279
0 0 0 0 0 0 0 0 0 0 0 0 0 0 0 0 0 0 0 0 0 0 0 0 0 0 0 0 0 3 1 0 0 0 0 44 114 323 301 278 510 469 372 368 313
0 0 0 0 0 0 0 0 0 0 0 0 0 0 0 0 0 0 0 0 0 0 0 0 0 0 0 0 0 0 1 1 0 0 0 50 16 115 341 262 349 567 576 468 454
0 0 0 0 0 0 0 0 0 0 0 0 0 0 0 0 0 0 0 0 0 0 0 0 0 0 0 0 0 0 1 0 0 0 0 48 40 0 65 309 395 529 687 653 662
0 0 0 0 0 0 0 0 0 0 0 0 0 0 0 0 0 0 0 0 0 0 0 0 0 0 0 0 0 0 0 6 0 0 0 3 51 31 0 99 330 462 702 716 779
0 0 0 0 0 0 0 0 0 0 0 0 0 0 0 0 0 0 0 0 0 0 0 0 0 0 0 0 0 0 0 0 1 0 0 0 19 143 15 27 261 282 620 689 776
0 0 0 0 0 0 0 0 0 0 0 0 0 0 0 0 0 0 0 0 0 0 0 0 0 0 0 0 0 0 0 0 0 0 0 0 0 41 77 28 23 232 494 562 909
0 0 0 0 0 0 0 0 0 0 0 0 0 0 0 0 0 0 0 0 0 0 0 0 0 0 0 0 0 0 0 0 0 0 0 0 12 85 22 127 55 44 350 535 781
0 0 0 0 0 0 0 0 0 0 0 0 0 0 0 0 0 0 0 0 0 0 0 0 0 0 0 0 0 0 0 0 0 0 0 8 0 92 1 21 34 116 137 378 712
0 0 0 0 0 0 0 0 0 0 0 0 0 0 0 0 0 0 0 0 0 0 0 0 0 0 0 0 0 0 0 0 18 27 7 4 3 4 25 4 1 1 66 144 309
0 0 0 0 0 0 0 0 0 0 0 0 0 0 0 0 0 0 0 0 0 0 0 0 0 0 0 0 0 0 0 0 0 0 36 23 0 7 1 0 0 0 0 69 261
0 0 0 0 0 0 0 0 0 0 0 0 0 0 0 0 0 0 0 0 0 0 0 0 0 0 0 0 0 0 0 0 0 69 79 24 17 0 1 0 30 57 13 98 546
0 0 0 0 0 0 0 0 0 0 0 0 0 0 0 0 0 0 0 0 0 0 0 0 0 0 0 0 0 0 0 0 0 0 99 137 69 187 108 0 2 48 88 376 510
0 0 0 0 0 0 0 0 0 0 0 0 0 0 0 0 0 0 0 0 0 0 0 0 0 0 0 0 0 0 0 0 0 12 87 3 0 0 0 0 0 0 105 391 754
0 0 0 0 0 0 0 0 0 0 0 0 0 0 0 0 0 0 0 0 0 0 0 0 0 0 0 4 0 0 0 0 0 0 234 77 38 0 0 0 0 0 0 283 685
0 0 0 0 0 0 0 0 0 0 0 0 0 0 0 0 0 0 0 0 0 0 5 0 0 0 0 0 3 0 0 0 3 33 65 181 101 78 7 0 0 0 0 0 1268
0 0 0 0 0 0 0 0 0 0 0 0 0 0 0 0 0 0 0 3 0 11 0 0 15 1 0 0 17 2 0 0 0 1 66 87 272 203 217 58 0 11 110 246 370
0 0 0 0 0 0 0 0 0 0 0 0 0 0 0 0 0 0 0 2 3 0 0 0 0 0 0 0 0 39 1 0 0 0 2 1 266 119 308 0 0 0 0 78 374
4 5 1 0 0 0 5 0 0 0 0 0 0 0 0 0 0 0 0 7 2 24 0 0 0 9 0 0 0 0 4 13 0 2 0 34 305 198 0 0 8 2 0 71 521
CIN
0 0 0 0 0 0 0 0 0 0 0 0 0 0 0 0 0 0 0 0 0 0 0 0 0 0 -12 -58 -57 -22 -10 0 -11 -20 -79 -93 -65 -45 -52 -30 -59 -76 -66 -29 0
0 0 0 0 0 0 0 0 0 0 0 0 0 0 0 0 0 0 0 0 0 -259 0 0 0 0 0 0 -33 -33 0 0 0 -32 -50 -113 -64 -121 -50 -62 -86 -65 -52 -11 -8
0 0 0 0 0 0 0 0 0 0 0 0 0 0 0 0 0 0 -114 0 0 0 0 0 0 0 -11 -1 -3 0 0 0 0 0 -118 -18 -66 -57 -70 -56 -75 -84 -52 -16 -3
0 0 0 0 0 0 0 0 0 0 0 0 0 0 0 0 0 0 0 0 0 0 0 0 0 -1 -6 -5 0 -1 0 0 0 0 -43 -31 -71 -186 -96 -67 -87 -96 -48 -48 -13
0 0 0 0 0 0 0 0 0 0 0 0 0 0 0 0 0 0 0 0 0 0 0 0 0 -3 -7 0 0 -4 0 0 0 0 -53 -46 -77 -92 -66 -93 -93 -92 -68 -15 -19
0 0 0 0 0 0 0 0 0 0 0 0 0 0 0 0 0 0 0 0 0 0 0 0 0 0 0 0 0 0 0 0 0 0 -13 -27 -74 -93 -71 -83 -95 -82 -64 -38 -30
0 0 0 0 0 0 0 0 0 0 0 0 0 0 0 0 0 0 0 0 0 0 0 0 0 0 0 0 0 0 0 0 0 0 -2 -11 -19 -60 -60 -85 -65 -78 -73 -57 -31
0 0 0 0 0 0 0 0 0 0 0 0 0 0 0 0 0 0 0 0 0 0 0 0 0 0 0 0 0 0 0 -1 0 -1 -7 -41 -1 -29 -73 -59 -46 -65 -76 -83 -66
0 0 0 0 0 0 0 0 0 0 0 0 0 0 0 0 0 0 0 0 0 0 0 0 0 0 0 0 0 0 -1 0 0 0 -15 -15 -1 -12 -46 -46 -29 -48 -61 -84 -82
0 0 0 0 0 0 0 0 0 0 0 0 0 0 0 0 0 0 0 0 0 0 0 0 0 0 0 0 0 -2 -10 0 0 0 -1 -3 -2 -1 -13 -26 -34 -40 -60 -66 -73
0 0 0 0 0 0 0 0 0 0 0 0 0 0 0 0 0 0 0 0 0 0 0 0 0 0 0 0 0 0 -2 -4 0 0 0 -4 -9 -20 -4 -10 -35 -35 -56 -68 -70
0 0 0 0 0 0 0 0 0 0 0 0 0 0 0 0 0 0 0 0 0 0 0 0 0 0 0 0 0 0 -2 -1 0 0 0 -7 -13 0 -15 -3 -17 -36 -39 -44 -62
0 0 0 0 0 0 0 0 0 0 0 0 0 0 0 0 0 0 0 0 0 0 0 0 0 0 0 0 0 0 0 -2 0 0 0 -1 -2 -14 0 -8 0 -2 -19 -16 -29
0 0 0 0 0 0 0 0 0 0 0 0 0 0 0 0 0 0 0 0 0 0 0 0 0 0 0 0 0 0 0 0 -1 0 0 0 0 -11 -20 -35 -2 -3 -8 -11 -9
0 0 0 0 0 0 0 0 0 0 0 0 0 0 0 0 0 0 0 0 0 0 0 0 0 0 0 0 0 0 0 0 0 0 0 0 0 -7 -35 -21 -10 -3 -3 -3 -5
0 0 0 0 0 0 0 0 0 0 0 0 0 0 0 0 0 0 0 0 0 0 0 0 0 0 0 0 0 0 0 0 0 0 0 0 -1 -3 -6 -14 -35 -45 -2 -4 -4
0 0 0 0 0 0 0 0 0 0 0 0 0 0 0 0 0 0 0 0 0 0 0 0 0 0 0 0 0 0 0 0 0 0 0 0 -2 -7 -2 -3 0 -8 -17 -5 -3
0 0 0 0 0 0 0 0 0 0 0 0 0 0 0 0 0 0 0 0 0 0 0 0 0 0 0 0 0 0 0 0 -7 -2 -3 -10 -9 -7 -18 -18 -4 -4 -5 -15 -26
0 0 0 0 0 0 0 0 0 0 0 0 0 0 0 0 0 0 0 0 0 0 0 0 0 0 0 0 0 0 0 0 0 0 -8 -6 0 -32 -9 0 0 0 0 -9 -11
0 0 0 0 0 0 0 0 0 0 0 0 0 0 0 0 0 0 0 0 0 0 0 0 0 0 0 0 0 0 0 0 0 -5 -1 -1 -8 0 -41 0 -59 -67 -37 -18 -11
0 0 0 0 0 0 0 0 0 0 0 0 0 0 0 0 0 0 0 0 0 0 0 0 0 0 0 0 0 0 0 0 0 0 -1 -3 -22 -38 -65 0 -18 -55 -39 -3 -5
0 0 0 0 0 0 0 0 0 0 0 0 0 0 0 0 0 0 0 0 0 0 0 0 0 0 0 0 0 0 0 0 0 -16 -5 -11 -1 0 0 0 0 0 -77 -46 -7
0 0 0 0 0 0 0 0 0 0 0 0 0 0 0 0 0 0 0 0 0 0 0 0 0 0 0 -1 0 0 0 0 0 0 -4 -6 -22 0 0 0 0 0 0 -60 -28
0 0 0 0 0 0 0 0 0 0 0 0 0 0 0 0 0 0 0 0 0 0 -78 0 0 0 0 0 -1 0 0 0 0 -6 -1 -3 -10 -27 -39 0 0 0 0 0 -13
0 0 0 0 0 0 0 0 0 0 0 0 0 0 0 0 0 0 0 0 0 -199 0 0 -1 0 0 0 -1 -2 0 0 0 0 0 -4 -10 -11 -15 -66 0 -15 -62 -59 -23
0 0 0 0 0 0 0 0 0 0 0 0 0 0 0 0 0 0 0 -2 0 0 0 0 0 0 0 0 0 -4 -5 0 0 0 -5 -6 -36 -34 -31 0 0 0 0 -94 -66
0 0 0 0 0 0 0 0 0 0 0 0 0 0 0 0 0 0 0 -2 -2 -5 0 0 0 -1 0 0 0 0 -1 -4 0 -7 -2 0 -40 -62 0 0 -47 -41 0 -134 -73
Wind_Speed
19 19 19 19 18 17 16 16 15 13 12 11 12 12 10 11 13 7 10 2 3 6 2 12 15 16 18 19 8 12 4 9 13 11 14 17 18 16 20 20 23 23 25 25 20
20 20 19 19 19 18 17 16 16 14 12 11 10 10 8 7 9 16 7 8 7 6 9 11 12 12 14 13 5 11 8 12 12 6 17 13 20 20 22 22 23 24 24 26 20
21 21 21 20 20 19 18 17 15 16 13 11 10 8 6 8 9 13 6 10 8 7 12 15 13 17 20 8 6 17 10 14 11 8 9 24 18 8 19 18 19 21 26 20 16
21 21 21 21 21 20 20 19 17 14 13 10 10 6 4 7 6 7 7 6 7 9 12 14 13 17 17 2 4 1 9 8 13 3 17 15 16 23 20 20 21 19 20 25 19
22 22 22 22 21 21 21 20 17 14 11 10 7 3 5 9 14 9 9 7 9 10 12 12 13 14 14 4 7 8 9 5 13 2 10 20 20 22 20 21 20 19 16 22 20
21 21 22 22 22 21 20 19 16 13 12 9 5 3 7 14 11 12 13 12 12 13 13 11 12 12 11 6 7 9 4 3 15 7 9 15 18 21 20 21 20 18 16 15 26
21 21 21 22 23 22 22 19 16 11 10 8 5 6 12 9 5 11 12 13 14 13 13 8 11 10 12 11 4 7 10 9 13 10 10 26 11 18 20 20 19 17 15 16 15
22 22 22 22 22 22 22 20 15 9 7 6 4 8 8 19 5 10 11 12 13 10 12 9 5 12 14 13 6 13 15 12 13 15 14 26 15 20 20 17 17 17 16 15 17
22 23 23 23 22 23 21 20 12 5 5 6 7 9 10 5 13 11 12 13 11 11 7 7 8 13 17 14 14 13 11 18 11 10 12 10 17 19 20 17 15 15 15 15 15
22 23 24 24 23 22 25 12 7 5 7 10 12 9 11 14 15 15 12 12 11 11 10 9 8 12 14 13 13 9 10 16 13 7 11 20 17 17 19 18 16 15 15 15 16
22 23 25 26 24 20 16 5 7 7 12 12 16 16 12 15 15 14 14 13 13 13 14 15 12 15 17 17 11 14 9 11 13 14 11 22 18 16 20 19 18 16 15 16 16
22 24 26 28 26 23 8 8 8 9 11 24 21 20 6 13 14 14 15 14 13 15 16 15 15 18 16 10 2 10 10 13 13 8 11 19 19 17 14 19 20 19 17 17 17
22 23 26 29 32 9 12 16 13 11 9 17 24 18 14 13 15 18 19 18 16 17 16 18 16 16 16 3 7 9 12 11 12 9 10 11 17 19 16 12 19 20 19 17 18
22 23 25 31 9 11 13 12 7 11 8 15 24 23 20 15 18 17 21 19 12 18 18 17 19 16 7 9 10 13 11 5 9 13 12 13 8 18 18 15 19 19 21 20 19
22 22 23 15 14 10 11 11 11 9 8 13 25 13 16 20 10 19 20 21 17 16 15 18 17 9 10 13 16 14 8 2 6 9 12 15 8 17 19 17 15 18 21 20 20
22 22 22 13 9 16 16 15 10 8 14 4 17 19 23 21 23 22 20 22 15 17 19 18 16 11 15 14 14 12 2 5 8 11 12 15 9 16 16 19 19 19 20 19 21
24 24 18 11 9 14 14 8 8 13 14 15 21 21 25 23 23 23 22 23 19 16 17 18 19 16 13 15 16 9 8 7 9 9 11 16 9 10 9 17 8 17 19 19 19
25 32 12 12 12 15 10 9 15 12 27 9 17 18 25 23 24 21 23 20 24 20 13 16 15 14 16 20 14 11 15 11 5 6 10 9 5 3 17 11 3 4 13 20 19
30 12 13 13 16 10 10 15 18 19 25 27 12 21 23 24 20 23 24 23 23 23 19 16 19 20 19 16 12 13 14 19 15 16 8 11 8 11 8 4 8 2 7 12 21
12 12 13 16 16 10 12 23 22 26 28 20 19 18 21 25 27 25 23 23 24 25 23 17 13 20 21 15 20 18 14 13 7 11 8 7 11 8 12 8 8 1 8 9 12
8 8 12 22 13 11 19 24 30 25 26 25 21 18 19 18 26 25 25 22 26 25 23 22 18 13 20 17 19 16 12 10 13 9 7 4 8 12 10 9 6 3 2 7 9
9 7 7 13 12 13 19 27 22 26 29 26 23 21 20 20 22 27 27 25 22 25 27 24 12 14 19 16 15 15 16 14 10 8 10 5 10 15 9 8 4 5 7 7 12
6 11 10 10 16 17 18 26 28 28 28 26 27 19 19 20 18 22 27 22 21 22 24 20 16 14 18 19 17 17 18 19 14 12 11 9 10 14 9 9 7 5 5 3 7
7 7 10 11 14 21 21 24 27 29 30 26 27 19 20 20 19 17 22 20 19 22 12 14 18 17 14 15 17 21 21 19 18 12 13 11 14 15 13 13 10 6 3 3 8
6 9 13 9 17 21 24 23 28 28 30 28 25 25 23 21 19 17 18 17 21 13 15 17 16 19 22 22 17 18 21 20 18 17 15 4 5 13 11 10 8 6 4 5 4
8 7 11 14 22 20 22 26 25 24 28 30 27 26 23 22 22 18 20 20 19 15 17 16 14 16 22 21 23 19 24 21 22 22 12 14 11 16 14 10 10 7 4 3 4
8 14 9 11 16 15 13 22 29 25 24 28 29 24 23 24 24 17 20 17 16 15 14 14 13 13 17 22 21 21 14 21 19 13 16 14 13 16 13 10 7 6 6 3 4
Wind_Direction
3 0 358 353 349 349 349 341 336 330 320 315 314 314 310 310 298 238 254 235 164 163 152 270 233 265 263 259 247 290 304 41 63 85 89 100 94 81 78 73 76 85 112 127 133
360 357 356 353 348 344 342 340 331 326 318 311 307 304 298 309 265 257 223 139 147 167 234 245 272 272 264 268 244 249 65 91 73 36 108 95 75 112 96 97 96 106 117 133 137
357 355 352 351 347 342 337 335 330 321 316 310 306 302 288 288 271 248 86 146 159 194 255 286 291 275 275 296 341 46 49 80 69 4 112 102 127 122 121 112 118 123 135 130 131
355 352 350 347 345 340 336 331 327 318 311 308 306 297 294 248 259 87 158 158 153 234 251 271 261 263 272 53 333 100 79 61 112 330 83 116 116 78 82 110 124 130 132 133 145
352 349 347 344 341 337 334 329 322 311 302 300 298 286 253 219 265 138 161 161 190 215 246 260 270 270 321 79 253 47 102 67 101 90 125 90 89 99 107 117 128 131 136 141 131
348 345 342 341 338 334 333 329 319 303 292 286 273 263 250 243 105 138 162 171 210 210 239 254 269 353 305 340 322 21 0 95 110 107 134 113 110 112 121 129 131 140 145 129 141
345 342 340 338 336 333 333 330 321 301 281 270 236 252 254 250 125 164 168 193 217 217 242 244 282 296 300 265 84 247 222 165 132 155 137 97 123 119 133 136 142 145 145 137 141
342 339 337 335 333 332 331 328 321 299 259 250 235 244 257 206 248 167 189 203 216 225 258 280 255 280 294 308 242 232 233 174 149 156 115 135 117 133 140 145 148 152 145 151 148
339 337 335 332 331 329 327 319 305 301 241 211 227 230 245 115 218 196 201 203 202 225 235 322 278 264 263 238 239 214 242 136 142 192 158 127 132 141 150 152 154 157 153 159 159
338 335 332 329 328 327 321 288 293 273 225 209 263 235 240 209 191 199 197 212 194 213 217 224 244 247 237 245 239 219 217 155 151 201 207 143 135 157 153 156 158 163 164 165 167
337 333 330 326 324 324 324 220 206 195 226 224 174 229 136 200 173 187 190 206 194 211 216 206 222 226 233 236 285 315 254 154 153 162 225 151 146 162 167 159 162 165 170 173 174
334 332 327 323 319 317 277 252 29 339 296 224 259 225 246 145 169 188 182 195 198 211 213 227 222 239 242 240 1 273 295 146 126 136 246 141 158 162 183 170 164 168 173 178 177
331 330 326 323 316 277 237 276 309 306 271 262 213 230 202 184 197 188 186 201 198 215 211 233 209 234 245 179 238 232 250 144 163 154 253 270 159 160 176 198 165 171 167 184 178
329 328 328 331 299 334 268 234 266 295 275 243 201 209 210 205 226 185 192 201 191 216 224 228 255 201 220 229 222 228 239 310 165 181 211 221 211 166 172 195 173 176 167 181 176
324 325 326 318 304 282 359 342 327 273 266 201 180 175 189 198 187 190 183 206 226 210 218 218 239 210 215 218 209 254 22 111 263 282 262 206 245 172 174 187 197 185 178 185 170
319 318 329 309 225 260 293 289 272 234 232 161 157 181 191 202 228 165 181 223 233 225 220 241 209 210 229 218 247 249 164 270 264 256 236 243 232 152 185 182 198 198 189 184 172
314 309 301 288 256 353 325 272 217 235 226 204 159 202 197 193 210 177 187 202 215 216 215 223 231 212 217 221 222 224 214 214 220 218 241 232 202 130 139 175 185 191 187 181 178
314 305 259 235 241 258 251 229 234 218 241 203 168 199 204 195 209 186 188 203 214 217 207 215 214 212 196 222 216 217 233 236 202 251 219 141 194 106 99 107 108 339 193 183 183
311 295 251 225 225 245 243 221 216 234 212 244 180 186 204 210 201 196 200 210 205 219 233 195 226 194 219 220 213 205 235 263 285 284 267 170 178 134 142 125 137 224 239 209 183
318 294 257 247 198 199 233 233 225 233 259 239 233 223 199 212 202 209 195 207 217 211 230 246 216 219 193 197 238 235 202 242 251 280 231 247 153 134 126 154 99 51 272 253 201
271 251 242 184 187 204 226 225 229 248 245 260 270 243 231 206 217 215 203 213 211 213 222 242 256 236 182 195 213 221 235 243 252 242 295 221 63 92 103 104 101 124 271 302 287
281 259 231 154 193 221 228 233 240 238 250 266 252 258 258 232 220 223 217 211 205 214 207 227 245 253 189 193 223 244 213 230 253 244 285 324 135 114 119 132 129 73 65 339 322
265 254 277 208 224 229 233 237 242 240 247 243 251 237 263 272 257 229 222 218 209 208 223 203 228 243 251 188 190 230 228 216 236 266 268 255 134 135 121 113 79 58 28 138 287
278 249 227 205 243 255 240 235 231 240 242 244 248 227 244 259 265 269 233 212 214 219 203 229 215 235 234 231 200 205 225 236 222 219 239 211 152 153 151 133 144 126 106 318 338
247 254 285 227 229 232 252 261 236 227 231 240 247 239 216 243 249 251 256 238 210 206 178 228 236 226 239 259 224 205 211 235 247 250 229 165 88 110 98 97 95 87 60 357 309
292 259 324 307 292 243 219 238 250 250 226 223 236 243 233 226 240 237 244 247 212 183 189 205 236 230 244 241 258 242 205 204 228 237 248 270 114 141 130 142 150 133 115 91 335
258 292 287 280 282 271 257 229 235 251 251 232 222 233 237 236 230 237 243 237 236 192 185 212 223 216 237 244 255 253 243 195 214 212 225 232 127 131 145 135 122 112 99 89 49